#timestamp,LO_Frequency,Hit,StdDev 
1511607615.3,286047007.0,N
1511607635.1,286047006.6,N
1511607636.0,286047006.6,Y
1511607655.8,286047001.2,P
1511607675.7,286047002.7,N
1511607695.5,286047000.6,N
1511607715.3,286046999.8,N
1511607735.2,286047001.9,N
1511607755.9,286047002.2,N
1511607775.7,286047004.3,N
1511607795.6,286047002.5,N
1511607815.4,286047001.9,N
1511607835.2,286047002.2,N
1511607855.0,286046998.3,N
1511607856.0,286046998.3,N
1511607875.8,286047002.8,N
1511607895.6,286047002.2,N
1511607915.4,286047004.3,N
1511607935.3,286047004.7,N
1511607955.1,286047001.9,N
1511607975.8,286047001.0,N
1511607995.7,286047007.3,Y
1511608015.5,286047007.1,P
1511608035.3,286047008.8,P
1511608055.2,286047008.7,P
1511608075.9,286047007.5,N
1511608095.7,286047008.1,Y
1511608115.6,286047001.6,P
1511608135.4,286047002.0,N
1511608155.2,286046999.9,N
1511608175.1,286046998.6,N
1511608176.0,286046998.6,N
1511608195.8,286046996.7,N
1511608215.6,286046996.6,N
1511608235.5,286046995.6,N
1511608255.3,286046997.3,N
1511608275.1,286047002.7,N
1511608295.9,286047003.4,N
1511608315.7,286047004.7,N
1511608335.5,286047003.8,N
1511608355.3,286047003.9,N
1511608375.2,286047003.7,N
1511608395.0,286047003.8,N
1511608395.9,286047003.8,N
1511608415.7,286047003.9,N
1511608435.6,286046999.7,N
1511608455.4,286047000.0,N
1511608475.2,286046997.3,N
1511608495.1,286046993.3,N
1511608496.0,286046993.3,N
1511608515.8,286046994.4,N
1511608535.6,286046991.2,N
1511608555.5,286046990.5,N
1511608575.3,286046991.0,N
1511608595.1,286046991.1,N
1511608615.9,286046988.7,N
1511608635.7,286046991.5,N
1511608655.5,286046988.6,N
1511608675.4,286046988.4,N
1511608695.2,286046987.6,N
1511608715.0,286046989.8,N
1511608715.9,286046989.8,N
1511608735.7,286046989.1,N
1511608755.6,286046987.8,N
1511608775.4,286046989.6,N
1511608795.2,286046992.3,N
1511608815.1,286046994.0,N
1511608816.0,286046994.0,N
1511608835.8,286046992.5,N
1511608855.6,286046994.5,N
1511608875.5,286046991.8,N
1511608895.3,286046991.9,N
1511608915.1,286046993.9,N
1511608935.9,286046992.3,N
1511608955.7,286046990.5,N
1511608975.5,286046994.4,N
1511608995.4,286046996.3,N
1511609015.2,286046996.0,N
1511609035.0,286046999.1,N
1511609035.9,286046999.1,N
1511609055.8,286046997.0,N
1511609075.6,286046993.7,N
1511609095.4,286046993.9,N
1511609115.2,286046993.8,N
1511609135.1,286046992.1,N
1511609136.0,286046992.1,N
1511609155.8,286046990.2,Y
1511609175.7,286046998.9,P
1511609195.5,286047003.9,N
1511609215.3,286047003.1,N
1511609235.1,286047001.6,N
1511609255.9,286047005.1,N
1511609275.7,286047005.3,N
1511609295.5,286047005.8,N
1511609315.4,286047001.0,N
1511609335.2,286047000.0,N
1511609355.0,286047003.7,N
1511609355.9,286047003.7,N
1511609375.8,286047003.9,N
1511609395.6,286047002.3,N
1511609415.4,286047001.3,N
1511609435.3,286047003.6,N
1511609455.1,286047002.7,N
1511609456.0,286047002.7,N
1511609475.8,286047000.3,N
1511609495.6,286047003.7,N
1511609515.5,286047001.5,N
1511609535.3,286047000.5,N
1511609555.1,286047001.8,N
1511609575.9,286046999.7,N
1511609595.7,286046999.4,N
1511609615.5,286046999.2,N
1511609635.4,286046999.9,N
1511609655.2,286046999.7,N
1511609675.0,286046999.8,N
1511609675.9,286046999.8,N
1511609695.8,286046995.2,N
1511609715.6,286046997.6,N
1511609735.4,286046995.2,N
1511609755.2,286046998.4,N
1511609775.1,286047004.1,N
1511609776.0,286047004.1,N
1511609795.8,286047004.7,N
1511609815.6,286047006.0,N
1511609835.5,286047005.3,N
1511609855.3,286047003.3,N
1511609875.1,286047003.5,N
1511609895.9,286047007.5,N
1511609915.7,286047008.1,N
1511609935.5,286047010.6,Y
1511609955.4,286047006.3,P
1511609975.2,286047007.7,P
1511609995.0,286047010.4,P
1511609995.9,286047010.4,Y
1511610015.8,286047001.9,P
1511610035.6,286047000.7,N
1511610055.4,286046998.5,N
1511610075.3,286046995.6,N
1511610095.1,286046995.8,N
1511610115.8,286046994.1,N
1511610135.7,286046992.6,N
1511610155.5,286046992.4,N
1511610175.3,286046988.8,N
1511610195.2,286046987.9,N
1511610215.9,286046988.2,N
1511610235.7,286046988.7,N
1511610255.5,286046990.7,N
1511610275.4,286046990.2,N
1511610295.2,286046993.7,N
1511610315.0,286046994.8,N
1511610315.9,286046994.8,N
1511610335.8,286046991.7,N
1511610355.6,286046995.4,N
1511610375.4,286046997.8,N
1511610395.3,286046999.1,N
1511610415.1,286046997.4,N
1511610416.0,286046997.4,N
1511610435.8,286046996.1,N
1511610455.7,286046992.1,N
1511610475.5,286046991.1,N
1511610495.3,286046993.0,N
1511610515.2,286046990.3,N
1511610535.9,286046990.5,N
1511610555.7,286046991.3,N
1511610575.5,286046990.9,N
1511610595.4,286046990.8,N
1511610615.2,286046990.3,Y
1511610635.0,286047000.8,P
1511610636.0,286047000.8,N
1511610655.8,286047000.9,N
1511610675.6,286047001.1,N
1511610695.4,286046999.5,N
1511610715.3,286046998.6,N
1511610735.1,286046998.7,N
1511610755.8,286047001.9,N
1511610775.7,286046999.8,N
1511610795.5,286046999.0,N
1511610815.3,286047001.1,N
1511610835.2,286047000.2,N
1511610855.9,286046997.2,N
1511610875.7,286046997.1,N
1511610895.6,286046996.6,N
1511610915.4,286046995.5,N
1511610935.2,286046995.7,N
1511610955.0,286046995.7,N
1511610955.9,286046995.7,N
1511610975.8,286046995.0,N
1511610995.6,286046993.6,N
1511611015.4,286046995.6,N
1511611035.3,286046995.4,N
1511611055.1,286046994.0,N
1511611075.8,286046995.3,N
1511611095.7,286046994.4,N
1511611115.5,286046992.9,N
1511611135.3,286046989.2,Y
1511611155.2,286046993.9,P
1511611175.9,286046998.6,N
1511611195.7,286047000.9,N
